| time (UTC) | temp C | wind direction | speed KPH | gust KPH | rain 1hr cm | rain 24hr cm | rain mn cm | humidity % | barometer mb |
| 20260504201524 | 17 | 323 | 12.9 | 33.8 | 0.00 | 0.00 | 0.00 | 31 | 1001.7 |
| 20260504200024 | 17 | 335 | 9.7 | 30.6 | 0.00 | 0.00 | 0.00 | 32 | 1001.4 |
| 20260504194523 | 17 | 342 | 9.7 | 33.8 | 0.00 | 0.00 | 0.00 | 32 | 1001.5 |
| 20260504193023 | 18 | 340 | 14.5 | 22.5 | 0.00 | 0.00 | 0.00 | 32 | 1001.0 |
| 20260504191523 | 18 | 340 | 17.7 | 37.0 | 0.00 | 0.00 | 0.00 | 31 | 1001.0 |
| 20260504190022 | 18 | 326 | 12.9 | 30.6 | 0.00 | 0.00 | 0.00 | 33 | 1000.7 |
| 20260504184531 | 18 | 338 | 8.0 | 25.7 | 0.00 | 0.00 | 0.00 | 34 | 1000.9 |
| 20260504183026 | 18 | 352 | 17.7 | 32.2 | 0.00 | 0.00 | 0.00 | 31 | 1001.0 |
| 20260504181520 | 18 | 324 | 14.5 | 33.8 | 0.00 | 0.00 | 0.00 | 31 | 1000.8 |
| 20260504180022 | 18 | 341 | 11.3 | 24.1 | 0.00 | 0.00 | 0.00 | 31 | 1000.5 |
| 20260504174519 | 18 | 333 | 11.3 | 24.1 | 0.00 | 0.00 | 0.00 | 30 | 1000.2 |
| 20260504173017 | 19 | 295 | 8.0 | 22.5 | 0.00 | 0.00 | 0.00 | 33 | 1000.0 |
| 20260504171516 | 18 | 302 | 6.4 | 22.5 | 0.00 | 0.00 | 0.00 | 34 | 1000.1 |
| 20260504150103 | 16 | 224 | 8.0 | 22.5 | 0.00 | 0.00 | 0.00 | 50 | 998.5 |
| 20260504081505 | 10 | 160 | 0.0 | 3.2 | 0.00 | 0.00 | 0.00 | 57 | 999.7 |
| 20260504044530 | 11 | 195 | 0.0 | 3.2 | 0.00 | 0.00 | 0.00 | 48 | 1002.3 |
| 20260504043033 | 12 | 153 | 0.0 | 3.2 | 0.00 | 0.00 | 0.00 | 47 | 1002.6 |
| 20260504041529 | 12 | 160 | 0.0 | 3.2 | 0.00 | 0.00 | 0.00 | 46 | 1002.7 |
| 20260504040024 | 12 | 170 | 0.0 | 3.2 | 0.00 | 0.00 | 0.00 | 45 | 1003.0 |
| 20260504034523 | 13 | 177 | 1.6 | 3.2 | 0.00 | 0.00 | 0.00 | 44 | 1003.3 |
| 20260504033020 | 13 | 214 | 0.0 | 4.8 | 0.00 | 0.00 | 0.00 | 44 | 1003.6 |
| 20260504031519 | 13 | 199 | 0.0 | 3.2 | 0.00 | 0.00 | 0.00 | 43 | 1003.7 |
| 20260504030019 | 14 | 160 | 0.0 | 1.6 | 0.00 | 0.00 | 0.00 | 41 | 1003.8 |
| 20260504024518 | 15 | 156 | 0.0 | 3.2 | 0.00 | 0.00 | 0.00 | 39 | 1003.8 |
| 20260504023016 | 16 | 117 | 0.0 | 4.8 | 0.00 | 0.00 | 0.00 | 38 | 1003.8 |
| 20260504021515 | 16 | 180 | 1.6 | 3.2 | 0.00 | 0.00 | 0.00 | 37 | 1003.9 |
| 20260504020014 | 17 | 222 | 0.0 | 3.2 | 0.00 | 0.00 | 0.00 | 34 | 1004.0 |
| 20260504014514 | 17 | 216 | 0.0 | 3.2 | 0.00 | 0.00 | 0.00 | 33 | 1004.1 |
| 20260504013019 | 18 | 198 | 0.0 | 3.2 | 0.00 | 0.00 | 0.00 | 32 | 1004.1 |
| 20260504011512 | 19 | 293 | 0.0 | 8.0 | 0.00 | 0.00 | 0.00 | 30 | 1004.1 |
| 20260504010011 | 20 | 295 | 1.6 | 8.0 | 0.00 | 0.00 | 0.00 | 29 | 1004.1 |
| 20260504004528 | 21 | 272 | 3.2 | 8.0 | 0.00 | 0.00 | 0.00 | 27 | 1004.3 |
| 20260504003008 | 22 | 221 | 1.6 | 9.7 | 0.00 | 0.00 | 0.00 | 26 | 1004.3 |
| 20260504001523 | 22 | 290 | 3.2 | 11.3 | 0.00 | 0.00 | 0.00 | 26 | 1004.3 |
| 20260504000007 | 22 | 279 | 3.2 | 16.1 | 0.00 | 0.00 | 0.00 | 26 | 1004.3 |
| 20260503234504 | 22 | 248 | 4.8 | 19.3 | 0.00 | 0.00 | 0.00 | 25 | 1004.6 |
| 20260503233004 | 22 | 304 | 4.8 | 16.1 | 0.00 | 0.00 | 0.00 | 25 | 1004.7 |
| 20260503231502 | 22 | 304 | 6.4 | 16.1 | 0.00 | 0.00 | 0.00 | 25 | 1004.6 |
| 20260503230002 | 22 | 354 | 4.8 | 14.5 | 0.00 | 0.00 | 0.00 | 25 | 1004.7 |
| 20260503224607 | 22 | 304 | 6.4 | 19.3 | 0.00 | 0.00 | 0.00 | 25 | 1004.8 |
| 20260503223111 | 22 | 208 | 4.8 | 14.5 | 0.00 | 0.00 | 0.00 | 26 | 1004.9 |
| 20260503221554 | 22 | 300 | 11.3 | 19.3 | 0.00 | 0.00 | 0.00 | 25 | 1005.0 |
| 20260503220053 | 22 | 295 | 6.4 | 14.5 | 0.00 | 0.00 | 0.00 | 24 | 1005.1 |
| 20260503214556 | 22 | 323 | 6.4 | 16.1 | 0.00 | 0.00 | 0.00 | 22 | 1005.3 |
| 20260503213049 | 22 | 298 | 3.2 | 12.9 | 0.00 | 0.00 | 0.00 | 26 | 1005.3 |
| 20260503211546 | 22 | 314 | 11.3 | 25.7 | 0.00 | 0.00 | 0.00 | 26 | 1005.6 |
| 20260503210045 | 22 | 1 | 6.4 | 19.3 | 0.00 | 0.00 | 0.00 | 28 | 1005.8 |
| 20260503204544 | 22 | 328 | 3.2 | 19.3 | 0.00 | 0.00 | 0.00 | 27 | 1006.0 |
| 20260503203038 | 21 | 353 | 9.7 | 20.9 | 0.00 | 0.00 | 0.00 | 27 | 1006.1 |